Date String (YYYY-MM-DD hh:mm:ss) UTC,Instrument flags,Ambient pressure (hPa),Sample flow (lpm),Bypass flow (lpm),Sample temperature (°C),Ambient temperature (°C),ASC tube jacket temperature (°C),LED temperature (°C),Box temperature (°C),Sample RH (%),Span deviation,Mass concentration (μg/m³),Mass concentration (μg/m³),Mass concentration (μg/m³)
DateTimeUTC,F1_M11,P_M11,Q1_M11,Q2_M11,T1_M11,T2_M11,T3_M11,T4_M11,T5_M11,U1_M11,ZSPAN_M11,X2_M11,X0_M11,X1_M11
2023-05-14 08:00:00,,0840.1,4.99,0.00,29.5,27.8,00.0,37.8,31.0,25.9,0000.0,0000.98,0002.11,0000.74
2023-05-14 08:01:00,,0840.1,5.00,0.00,29.5,27.8,00.0,37.8,31.0,25.8,0000.0,0000.94,0001.79,0000.71
2023-05-14 08:02:00,,0840.1,5.00,0.00,29.5,27.8,00.0,37.8,31.0,25.9,0000.0,0000.90,0001.58,0000.69
2023-05-14 08:03:00,,0840.1,5.01,0.00,29.4,27.8,00.0,37.8,31.0,25.9,0000.0,0000.84,0001.20,0000.67
2023-05-14 08:04:00,,0840.1,5.00,0.00,29.5,27.8,00.0,37.8,31.0,25.9,0000.0,0000.82,0001.15,0000.67
2023-05-14 08:05:00,,0840.1,4.99,0.00,29.4,27.8,00.0,37.8,31.0,26.0,0000.0,0000.83,0001.18,0000.66
2023-05-14 08:06:00,,0840.1,5.01,0.00,29.4,27.8,00.0,37.8,31.0,25.9,0000.0,0000.83,0001.19,0000.66
2023-05-14 08:07:00,,0840.1,5.01,0.00,29.4,27.7,00.0,37.8,31.0,25.9,0000.0,0000.86,0001.27,0000.67
2023-05-14 08:08:00,,0840.1,5.00,0.00,29.4,27.7,00.0,37.8,31.0,25.9,0000.0,0000.85,0001.27,0000.66
2023-05-14 08:09:00,,0840.1,4.99,0.00,29.4,27.8,00.0,37.8,31.0,25.9,0000.0,0000.85,0001.22,0000.67
2023-05-14 08:10:00,,0840.1,5.00,0.00,29.4,27.8,00.0,37.8,30.9,25.9,0000.0,0000.84,0001.21,0000.68
2023-05-14 08:11:00,,0840.1,5.01,0.00,29.4,27.8,00.0,37.8,30.9,26.0,0000.0,0000.84,0001.18,0000.68
2023-05-14 08:12:00,,0840.1,5.00,0.00,29.4,27.8,00.0,37.8,31.0,26.0,0000.0,0000.83,0001.15,0000.68
2023-05-14 08:13:00,,0840.1,5.00,0.00,29.4,27.8,00.0,37.8,30.9,26.0,0000.0,0000.85,0001.21,0000.68
2023-05-14 08:14:00,,0840.0,4.98,0.00,29.4,27.8,00.0,37.8,30.9,26.1,0000.0,0000.85,0001.22,0000.69
2023-05-14 08:15:00,,0840.0,4.99,0.00,29.4,27.7,00.0,37.8,30.9,26.1,0000.0,0000.86,0001.23,0000.70
2023-05-14 08:16:00,,0840.1,5.00,0.00,29.4,27.8,00.0,37.8,30.9,26.1,0000.0,0000.83,0001.16,0000.70
2023-05-14 08:17:00,,0840.1,5.00,0.00,29.4,27.7,00.0,37.8,30.9,26.1,0000.0,0000.82,0001.15,0000.69
2023-05-14 08:18:00,,0840.1,5.01,0.00,29.4,27.7,00.0,37.8,30.9,26.1,0000.0,0000.78,0001.04,0000.68
2023-05-14 08:19:00,,0840.1,5.00,0.00,29.4,27.7,00.0,37.8,30.9,26.1,0000.0,0000.79,0001.06,0000.68
2023-05-14 08:20:00,,0840.1,4.99,0.00,29.4,27.7,00.0,37.8,30.9,26.1,0000.0,0000.78,0001.03,0000.67
2023-05-14 08:21:00,,0840.1,5.01,0.00,29.4,27.7,00.0,37.8,30.9,26.1,0000.0,0000.77,0001.03,0000.67
2023-05-14 08:22:00,,0840.1,5.01,0.00,29.4,27.7,00.0,37.8,30.9,26.1,0000.0,0000.78,0001.05,0000.67
2023-05-14 08:23:00,,0840.1,4.98,0.00,29.4,27.7,00.0,37.8,30.9,26.1,0000.0,0000.78,0001.02,0000.68
2023-05-14 08:24:00,,0840.1,5.00,0.00,29.3,27.7,00.0,37.7,30.9,26.2,0000.0,0000.77,0000.97,0000.69
2023-05-14 08:25:00,,0840.1,5.01,0.00,29.3,27.7,00.0,37.7,30.9,26.2,0000.0,0000.77,0000.96,0000.69
2023-05-14 08:26:00,,0840.1,5.00,0.00,29.3,27.7,00.0,37.7,30.8,26.2,0000.0,0000.77,0000.97,0000.69
2023-05-14 08:27:00,,0840.1,4.99,0.00,29.3,27.7,00.0,37.7,30.8,26.2,0000.0,0000.78,0000.98,0000.69
2023-05-14 08:28:00,,0840.1,5.01,0.00,29.3,27.6,00.0,37.7,30.8,26.2,0000.0,0000.78,0000.96,0000.70
2023-05-14 08:29:00,,0840.1,5.01,0.00,29.3,27.6,00.0,37.7,30.8,26.3,0000.0,0000.79,0000.98,0000.71
2023-05-14 08:30:00,,0840.1,4.99,0.00,29.3,27.6,00.0,37.7,30.8,26.3,0000.0,0000.80,0000.97,0000.72
2023-05-14 08:31:00,,0840.1,5.00,0.00,29.3,27.6,00.0,37.7,30.8,26.3,0000.0,0000.80,0000.98,0000.72
2023-05-14 08:32:00,,0840.1,5.01,0.00,29.3,27.6,00.0,37.7,30.8,26.3,0000.0,0000.81,0001.01,0000.73
2023-05-14 08:33:00,,0840.1,5.00,0.00,29.3,27.5,00.0,37.7,30.8,26.3,0000.0,0000.80,0000.98,0000.72
2023-05-14 08:34:00,,0840.1,5.00,0.00,29.3,27.5,00.0,37.7,30.8,26.3,0000.0,0000.77,0000.93,0000.70
2023-05-14 08:35:00,,0840.0,4.99,0.00,29.3,27.5,00.0,37.7,30.8,26.3,0000.0,0000.75,0000.90,0000.68
2023-05-14 08:36:00,,0840.0,5.01,0.00,29.2,27.5,00.0,37.7,30.8,26.3,0000.0,0000.74,0000.88,0000.67
2023-05-14 08:37:00,,0840.1,5.01,0.00,29.2,27.5,00.0,37.7,30.8,26.3,0000.0,0000.72,0000.85,0000.66
2023-05-14 08:38:00,,0840.1,4.99,0.00,29.2,27.5,00.0,37.7,30.8,26.3,0000.0,0000.71,0000.84,0000.65
2023-05-14 08:39:00,,0840.1,5.00,0.00,29.2,27.5,00.0,37.6,30.7,26.3,0000.0,0000.70,0000.83,0000.64
2023-05-14 08:40:00,,0840.1,5.00,0.00,29.2,27.5,00.0,37.6,30.7,26.3,0000.0,0000.66,0000.77,0000.62
2023-05-14 08:41:00,,0840.1,4.99,0.00,29.2,27.5,00.0,37.6,30.7,26.3,0000.0,0000.66,0000.79,0000.61
2023-05-14 08:42:00,,0840.1,5.01,0.00,29.2,27.5,00.0,37.6,30.7,26.3,0000.0,0000.64,0000.76,0000.60
2023-05-14 08:43:00,,0840.0,5.01,0.00,29.2,27.5,00.0,37.6,30.7,26.3,0000.0,0000.62,0000.73,0000.58
2023-05-14 08:44:00,,0840.0,5.01,0.00,29.2,27.5,00.0,37.6,30.7,26.4,0000.0,0000.61,0000.70,0000.57
2023-05-14 08:45:00,,0840.1,4.99,0.00,29.2,27.5,00.0,37.6,30.7,26.4,0000.0,0000.61,0000.71,0000.57
2023-05-14 08:46:00,,0840.1,5.00,0.00,29.2,27.5,00.0,37.6,30.7,26.4,0000.0,0000.61,0000.71,0000.57
2023-05-14 08:47:00,,0840.1,5.01,0.00,29.2,27.4,00.0,37.6,30.7,26.4,0000.0,0000.59,0000.69,0000.55
2023-05-14 08:48:00,,0840.0,5.01,0.00,29.1,27.4,00.0,37.6,30.7,26.4,0000.0,0000.59,0000.70,0000.55
2023-05-14 08:49:00,,0840.1,4.99,0.00,29.1,27.4,00.0,37.6,30.7,26.4,0000.0,0000.59,0000.69,0000.55
2023-05-14 08:50:00,,0840.0,4.99,0.00,29.1,27.4,00.0,37.6,30.7,26.4,0000.0,0000.58,0000.70,0000.54
2023-05-14 08:51:00,,0840.0,5.00,0.00,29.1,27.4,00.0,37.6,30.7,26.5,0000.0,0000.59,0000.73,0000.54
2023-05-14 08:52:00,,0840.0,5.00,0.00,29.1,27.4,00.0,37.5,30.6,26.5,0000.0,0000.56,0000.69,0000.52
2023-05-14 08:53:00,,0840.1,5.00,0.00,29.1,27.4,00.0,37.5,30.6,26.5,0000.0,0000.57,0000.71,0000.52
2023-05-14 08:54:00,,0840.0,5.00,0.00,29.1,27.4,00.0,37.5,30.6,26.5,0000.0,0000.57,0000.71,0000.52
2023-05-14 08:55:00,,0840.0,5.00,0.00,29.1,27.4,00.0,37.5,30.6,26.6,0000.0,0000.57,0000.70,0000.52
2023-05-14 08:56:00,,0840.1,5.00,0.00,29.1,27.3,00.0,37.5,30.6,26.6,0000.0,0000.58,0000.75,0000.53
2023-05-14 08:57:00,,0840.1,4.99,0.00,29.1,27.3,00.0,37.5,30.6,26.6,0000.0,0000.58,0000.75,0000.52
2023-05-14 08:58:00,,0840.1,5.01,0.00,29.1,27.3,00.0,37.5,30.6,26.7,0000.0,0000.61,0000.80,0000.53
2023-05-14 08:59:00,,0840.1,5.00,0.00,29.1,27.3,00.0,37.5,30.6,26.7,0000.0,0000.61,0000.82,0000.53
